Regional Weather Roundup
Issued by NWS Upton, NY

Current Version | Previous Version | Graphics & Text | Print | Product List | Glossary Off
Versions: 1 2 3 4 5 6 7 8 9 10 11 12 13 14 15 16 17 18 19 20 21 22 23 24 25 26 27 28 29 30 31 32 33 34 35 36 37 38 39 40 41 42 43 44 45 46 47 48 49 50

000
ASUS41 KOKX 091708
RWROKX

REGIONAL WEATHER ROUNDUP
NATIONAL WEATHER SERVICE NEW YORK NY
1200 PM EST FRI DEC 09 2016

NOTE: "FAIR" INDICATES FEW OR NO CLOUDS BELOW 12,000 FEET WITH NO
SIGNIFICANT WEATHER AND/OR OBSTRUCTIONS TO VISIBILITY.

NYZ071-072-176-178-NJZ106-104-091800-
NEW YORK CITY METRO AREA

CITY           SKY/WX    TMP DP  RH WIND       PRES   REMARKS
Central Park     N/A     39  19  45 MISG        N/A
Wall St Helipt SUNNY     42  20  41 VRB3      30.11F
Bronx Bot Gard   N/A     37  14  38 W15       30.10F WCI  28
LaGuardia APRT MOSUNNY   40  19  43 NW18G30   30.10F WCI  31
Kennedy INTL   MOSUNNY   40  17  39 NW20G29   30.11F WCI  30
Breezy Point     N/A     37 N/A N/A NW15G24     N/A  WCI  28
Newark/Liberty MOSUNNY   39  17  41 NW16G35   30.12F WCI  30
Teterboro      MOSUNNY   39  18  42 NW15G24   30.09F WCI  31
$$

NYZ177-179-078>081-091800-
LONG ISLAND NEW YORK

CITY           SKY/WX    TMP DP  RH WIND       PRES   REMARKS
Jones Beach      N/A     37 N/A N/A NW21G28     N/A  WCI  27
Matinecock PT    N/A     37 N/A N/A NW22G28     N/A  WCI  27
Farmingdale    PTSUNNY   39  17  41 NW16G28   30.08F WCI  30
MacArthur/ISP  PTSUNNY   39  18  42 W22G32    30.06F WCI  29
Shirley        MOSUNNY   38  18  44 NW12G26   30.06F WCI  30
Westhampton    NOT AVBL
Southampton      N/A     41  25  52 NW12      30.01F
Bridgehampton  NOT AVBL
East Hampton   CLOUDY    37  17  45 NW15G25   30.03F WCI  28
Montauk          N/A     38  18  44 NW16G28   30.03F WCI  29
$$

NYZ052-065-067-091800-
HUDSON VALLEY

CITY           SKY/WX    TMP DP  RH WIND       PRES   REMARKS
White Plains   PTSUNNY   37  17  44 W23G32    30.06F WCI  26
Newburgh       PTSUNNY   34  21  60 NW18G30   30.08F WCI  23
Montgomery     CLOUDY    36  18  48 W14G28    30.07F WCI  27
Poughkeepsie   CLOUDY    36  15  42 W17G25    30.06F WCI  26
Albany         PTSUNNY   32  14  47 W24G31    30.06F WCI  19
$$

NJZ001-105-106-008-010-013-015-019>022-104-091800-
NEW JERSEY

CITY           SKY/WX    TMP DP  RH WIND       PRES   REMARKS
Newark/Liberty MOSUNNY   39  17  41 NW16G35   30.12F WCI  30
Teterboro      MOSUNNY   39  18  42 NW15G24   30.09F WCI  31
Caldwell       MOSUNNY   38  15  39 NW18G26   30.11F WCI  28
Somerville     PTSUNNY   38  16  40 NW15G24   30.13S WCI  29
Linden         PTSUNNY  N/A N/A N/A NW21G30   30.13F
Sussex         CLOUDY    36  15  42 NW15G26   30.10S WCI  27
Andover          N/A     35  14  42 VRB7G22   30.11S WCI  29
Trenton        PTSUNNY   38  17  42 NW21G31   30.16F WCI  28
Millville      MOSUNNY   37  20  50 NW20G29   30.23F WCI  27
Atlantic City  MOSUNNY   39  18  42 W20G29    30.19F WCI  29
Wrightstown    MOSUNNY   38  19  46 NW17G25   30.14F WCI  29
Toms River     PTSUNNY   38  19  46 NW23      30.16F WCI  27
Belmar         PTSUNNY   39  18  42 W20G29    30.13F WCI  29
$$

PAZ047>061-062-071-091800-
EASTERN PENNSYLVANIA

CITY           SKY/WX    TMP DP  RH WIND       PRES   REMARKS
Philadelphia   PTSUNNY   37  17  44 W20       30.22F WCI  27
Allentown      CLOUDY    36  18  48 NW16G26   30.16F WCI  26
Scranton       CLOUDY    32  16  51 NW15G22   30.13F WCI  22
$$

CTZ002-004>006-009-010-012-RIZ004-006-007-MAZ004-011-015-091800-
SOUTHERN NEW ENGLAND
 IN CT

CITY           SKY/WX    TMP DP  RH WIND       PRES   REMARKS
Bradley INTL   PTSUNNY   35  16  45 NW13G21   30.03F WCI  26
Hartford       CLOUDY    36  14  40 NW18G29   30.04F WCI  26
Danbury        PTSUNNY   35  14  42 NW13G30   30.05F WCI  26
Wtrbury/Oxford MOSUNNY   34  12  40 NW12G21   30.03F WCI  25
Bridgeport     PTSUNNY   41  17  38 W15G24    30.05F
Meriden        CLOUDY    38  14  37 W10G26    30.03F WCI  31
New Haven      PTSUNNY   38  17  42 NW14G28   30.05S WCI  30
Chester          N/A     36  14  41 NW9G21    30.01F WCI  29
Groton         MOSUNNY   41  16  36 NW18G26   30.02F
Wilimantic     CLOUDY    36  16  44 NW14G24   30.02F WCI  27

 IN RI

CITY           SKY/WX    TMP DP  RH WIND       PRES   REMARKS
Providence     MOSUNNY   36  12  37 NW23G31   29.99F WCI  24
Block Island   SUNNY     37  17  44 NW14G31   30.00F WCI  28
Westerly       SUNNY     38  14  37 NW14G24   30.02F WCI  30
 IN MA

CITY           SKY/WX    TMP DP  RH WIND       PRES   REMARKS
Boston         MOSUNNY   36  14  40 NW18G24   29.95F WCI  26
Worcester      SUNNY     29  10  45 W20G31    29.92F WCI  16
Westfield      CLOUDY    32  17  54 NW17      30.01F WCI  21
Provincetown   MOSUNNY   37  18  46 W20       29.93F WCI  27
Nantucket      MOSUNNY   38  18  44 NW18G25   29.95F WCI  28
$$

ANZ330-335-338-340-345-350-353-355-091800-
COASTAL MARINE OBSERVATIONS


STATION/POSITION TIME  SKY/WX   TEMP    WIND        PRES    VSBY  WAVE
                                AIR SEA DIR/SP/G                  HT/PER
                 (UTC)          (F)     (DEG/KT/KT) (MB)    (MI)  (FT/S)
NY HARB ENTRANCE 1550            37 52  290/ 23/ 29 1019.8          4/ 4
20 S FIRE ISLAND 1550            37 53  310/ 25/ 33 1018.6          7/ 6
GREAT SOUTH BAY  1630            36 41                N/A
23 SSW MONTAUK P 1550            38 54  290/ 19/ 25 1017.8          6/ 7
15 E BARNEGAT LI 1630               52                N/A           5/ 5
HUDSON CANYON    1550            40 57              1019.1         10/ 8
KINGS POINT      1636            38 46              1018.9
EXECUTION ROCKS  1630            41     280/ 17/ 25   N/A
CENTRAL LI SOUND 1630            38 49  290/ 16/ 21   N/A           3/ 4
EASTERN LI SOUND NOT AVBL
ROBBINS REEF     1636            37     310/ 25/ 30 1019.3
$$


>>>>>>>>>>>>>>>>>>>>>>>>>>>> KEY <<<<<<<<<<<<<<<<<<<<<<<<<<<
>                                                          <
>     SKY/WX - Sky Condition/Present Weather               <
>     TMP    - Temperature in Fahrenheit                   <
>     DP     - Dew Point in Fahrenheit                     <
>     RH     - Relative Humidity in Percent                <
>     WIND   - Direction (from) and Speed in MPH           <
>     PRES   - Mean Sea Level Pressure (inches of Hg)      <
>     WCI    - Wind Chill Index                            <
>     VSB    - VISIBILITY IN MILES                         <
>     HX     - HEAT INDEX                                  <
>     TC     - TEMPERATURE IN CELSIUS                      <
>     VRB    - VARIABLE WIND DIRECTION                     <
>                                                          <
>>>>>>>>>>>>>>>>>>>>>>>>>>>> KEY <<<<<<<<<<<<<<<<<<<<<<<<<<<



USA.gov is the U.S. government's official web portal to all federal, state and local government web resources and services.